Tracking 29892 objects as of 21-Nov-2024
HD Live streaming from Space Station
objects crossing your sky now

MSG 2 DEB (BAFFLE COVER)

Track MSG 2 DEB (BAFFLE COVER) now!


NORAD ID: 29676
Int'l Code: 2005-049F
Perigee: 35,232.4 km
Apogee: 35,272.8 km
Inclination: 11.8 °
Period: 1,408.5 minutes
Semi major axis: 41623 km
RCS: 0.003 m2 (small)
Launch date: December 21, 2005
Source: European Organisation for the Exploitation of Meteorological Satellites (EUME)
Launch site: FRENCH GUIANA (FRGUI)

Note: This is SATELLITE DEBRIS
Your satellite tracking list
Your tracking list is empty




NASA's NSSDC Master Catalog

Two Line Element Set (TLE):
1 29676U 05049F   24319.86617029 -.00000014  00000-0  00000-0 0  9992
2 29676  11.8006  32.8021 0004849 302.9221  44.6815  1.02233471 68104
Source of the keplerian elements: AFSPC